Погода в Или

Великобритания     52°24′03″N   0°15′54″E
темп.,
°C
ветер,
м/с
пор.,
м/с
влажн.,
%
обл.,
%
осадки,
мм/ч
давл.,
гПа
погр.,
м
14 апреля, ср
ср1401:00+1юв227674 0.0 103316
04:00+3св2269100 0.0 103373
07:00+3в238224 0.0 1034123
10:00+7ссв35655 0.0 10341126
13:00+9с664951 0.0 10341808
16:00+8с67508 0.0 10331588
19:00+6ссв47653 0.0 1034387
22:00+2св33825 0.0 103443
15 апреля, чт
чт1501:00+1ссв22855 0.0 103519
04:000ссз22905 0.0 103425
07:00+1ссз36916 0.0 1034139
10:00+7ссв6868100 0.2 10341364
13:00+10св6747100 0.5 10332171
16:00+10св674639 0.0 10332059
19:00+7св58645 0.0 1033412
22:00+2св37891 0.0 1034129
16 апреля, пт
пт1601:00+1св34881 0.0 103458
04:000св33910 0.0 103430
07:00+1ссв23870 0.0 103459
10:00+8св45530 0.0 10331115
13:00+10св45445 0.0 10321768
16:00+10св554672 0.0 10311712
19:00+7св47610 0.0 1031308
22:00+2св34830 0.0 103259
17 апреля, сб
сб1701:00+1св22900 0.0 103127
04:00+1св22910 0.0 103115
07:00+2ссв22890 0.0 103036
10:00+8всв23604 0.0 1030727
13:00+11в23475 0.0 10281363
16:00+13всв22465 0.0 10271579
19:00+9ссв237051 0.0 102781
22:00+4юв36785 0.0 1028105
18 апреля, вс
вс1801:00+3ююв33785 0.0 102736
04:00+2ю3372100 0.0 102630
07:00+3ю2369100 0.0 102681
10:00+9ю3456100 0.0 1026419
13:00+12ююз4452100 0.0 10251024
16:00+14ююз4452100 0.0 10241300
19:00+12ю2370100 0.0 102351
22:00+8ююв477599 0.0 1024158